This is the latest recevied weather packets stored in our database for station/object DL9LAF-4. If no packets are shown the sender has not sent any weather packets the latest 10 day(s).
| Time | Temp. | Humidity | Pressure | Rain* | Wind** | Luminosity | Snow |
|---|---|---|---|---|---|---|---|
| 1777424152 | 3.89° C | 65% | 1007.4 hPa | 0 mm | - | - | - |
| 1777423552 | 3.89° C | 64% | 1007.4 hPa | 0 mm | - | - | - |
| 1777422952 | 3.89° C | 64% | 1007.5 hPa | 0 mm | - | - | - |
| 1777422352 | 3.89° C | 64% | 1007.7 hPa | 0 mm | - | - | - |
| 1777421752 | 3.89° C | 63% | 1007.7 hPa | 0 mm | - | - | - |
| 1777421152 | 4.44° C | 63% | 1007.7 hPa | 0 mm | - | - | - |
| 1777420552 | 4.44° C | 61% | 1007.7 hPa | 0 mm | - | - | - |
| 1777419952 | 4.44° C | 61% | 1007.7 hPa | 0 mm | - | - | - |
| 1777419352 | 5° C | 60% | 1007.7 hPa | 0 mm | - | - | - |
| 1777418752 | 5° C | 59% | 1007.5 hPa | 0 mm | - | - | - |
| 1777418152 | 5° C | 59% | 1007.5 hPa | 0 mm | - | - | - |
| 1777417552 | 5.56° C | 58% | 1007.5 hPa | 0 mm | - | - | - |
| 1777416952 | 6.11° C | 57% | 1007.4 hPa | 0 mm | - | - | - |
| 1777416352 | 6.11° C | 57% | 1007.2 hPa | 0 mm | - | - | - |
| 1777415752 | 6.11° C | 56% | 1007.2 hPa | 0 mm | - | - | - |
| 1777415152 | 6.67° C | 55% | 1007 hPa | 0 mm | - | - | - |
| 1777414552 | 6.67° C | 55% | 1007 hPa | 0 mm | - | - | - |
| 1777413952 | 6.67° C | 54% | 1006.9 hPa | 0 mm | - | - | - |
| 1777413352 | 7.22° C | 54% | 1006.7 hPa | 0 mm | - | - | - |
| 1777412752 | 7.22° C | 53% | 1006.7 hPa | 0 mm | - | - | - |
| 1777412152 | 7.22° C | 53% | 1006.7 hPa | 0 mm | - | - | - |
| 1777411552 | 7.78° C | 52% | 1006.7 hPa | 0 mm | - | - | - |
| 1777410952 | 7.78° C | 51% | 1006.7 hPa | 0 mm | - | - | - |
| 1777410352 | 7.78° C | 50% | 1006.5 hPa | 0 mm | - | - | - |
| 1777409752 | 8.33° C | 50% | 1006.5 hPa | 0 mm | - | - | - |
* Rain latest hour (hover to see other rain measurements)
** Current wind speed in m/s (hover to see current wind gust speed)